Regional Weather Roundup
Issued by NWS

Home | Current Version | Previous Version | Graphics & Text | Print | Product List | Glossary On
Versions: 1 2 3 4 5 6 7 8 9 10 11 12 13 14 15 16 17 18 19 20 21 22 23 24 25 26 27 28 29 30 31 32 33 34 35 36 37 38 39 40 41 42 43 44 45 46 47 48 49 50
000
ASUS45 KABQ 030310
RWRNM
NEW MEXICO REGIONAL WEATHER ROUNDUP
NATIONAL WEATHER SERVICE ALBUQUERQUE NM
800 PM MST FRI DEC 02 2016

NOTE: "FAIR" MEANS FEW OR NO CLOUDS BELOW 12,000 FEET AGL WITH NO
       SIGNIFICANT WEATHER OR OBSTRUCTIONS TO VISION.

      THIS PRODUCT IS RELEASED AS TWO VERSIONS.  ONE VERSION NEAR
      THE TOP OF THE HOUR CONTAINING PRELIMINARY DATA FROM ALBUQUERQUE
      AND OTHER STATIONS.  A FINAL VERSION WITH ADDITIONAL DATA IS
      ISSUED ABOUT 10 MINUTES AFTER THE HOUR.

NMZ501-503-504-510>518-030400-
NORTHWEST PLATEAU/NORTHCENTRAL MOUNTAINS

CITY           SKY/WX    TMP DP  RH WIND       PRES   REMARKS
FARMINGTON     MOCLDY    33  29  85 N6        30.06R WCI  28
LOS ALAMOS     FAIR      32  23  70 SW9       30.10R WCI  24
SANTA FE       CLOUDY    31  23  72 S6        30.09R WCI  25
TAOS           MOCLDY    27  16  63 N8        30.10R WCI  18
ANGEL FIRE     CLOUDY    21  18  88 CALM      30.12R

$$
NMZ402-403-502-505>509-030400-
WESTCENTRAL MOUNTAINS/SOUTHWEST MOUNTAINS

CITY           SKY/WX    TMP DP  RH WIND       PRES   REMARKS
GALLUP         CLOUDY    32  20  61 NE9       30.03R WCI  24
GRANTS         CLOUDY    35  21  57 S5        30.03S WCI  31
SILVER CITY    DRIZZLE   44  31  62 S8        29.96R

$$
NMZ407-409-411-412-030400-
SOUTHERN DESERTS

CITY           SKY/WX    TMP DP  RH WIND       PRES   REMARKS
DEMING         CLOUDY    47  40  76 W12       29.93R
LAS CRUCES     MOCLDY    50  27  40 E3        29.91S
HOLLOMAN AFB   MOCLDY    52  24  34 W8        29.96S
T OR C         CLOUDY    50  29  44 NW3       29.92R

$$
NMZ519>523-030400-
CENTRAL VALLEYS/CENTRAL HIGHLANDS

CITY           SKY/WX    TMP DP  RH WIND       PRES   REMARKS
ALBUQUERQUE    MOCLDY    37  22  54 E26G37    30.03R WCI  25
DOUBLE EAGLE   MOCLDY    34  19  55 CALM      30.05R
MORIARTY ARPT  CLOUDY    32  21  63 E14       30.12R WCI  22
CLINES CORNERS CLOUDY    26  19  74 E18G26    30.10S WCI  13
BELEN          FAIR      38  19  46 NW7       30.02R WCI  32
SOCORRO        CLOUDY    42  23  47 CALM      30.02R

$$
NMZ524>526-539-540-030400-
SOUTHCENTRAL MOUNTAINS

CITY           SKY/WX    TMP DP  RH WIND       PRES   REMARKS
RUIDOSO        CLOUDY    32  25  74 SE12G20   30.09R WCI  23

$$
NMZ527>531-030400-
NORTHEAST HIGHLANDS/NORTHEAST PLAINS

CITY           SKY/WX    TMP DP  RH WIND       PRES   REMARKS
LAS VEGAS      LGT SNOW  24  23  96 NE10      30.15R FOG     WCI  14
RATON          FLURRIES  27  23  85 E5        30.17R WCI  22
CLAYTON        CLOUDY    35  22  58 NE7       30.19R WCI  29

$$
NMZ532>537-030400-
EASTCENTRAL PLAINS

CITY           SKY/WX    TMP DP  RH WIND       PRES   REMARKS
TUCUMCARI      LGT SNOW  35  30  82 NE15      30.17R WCI  25
CANNON AFB     CLOUDY    38  33  81 NE14      30.12R WCI  30
CLOVIS AIRPORT CLOUDY    37  30  75 E15       30.13R WCI  28

$$
NMZ028-029-538-030400-
SOUTHEAST PLAINS

CITY           SKY/WX    TMP DP  RH WIND       PRES   REMARKS
ROSWELL        CLOUDY    46  30  53 N13       30.07R
ARTESIA        CLOUDY    46  39  76 NE13      30.07R
CARLSBAD       CLOUDY    47  44  90 N13       30.04R
HOBBS          CLOUDY    39  39 100 N16       30.05F FOG     WCI  30


$$




USA.gov is the U.S. government's official web portal to all federal, state and local government web resources and services.